This demonstration page uses our WeatherBlox Daily Observations layout. Learn more.

Hourly Observations for April 16, 2018

Temp ( °F °C ) Dew Point ( °F °C ) Humidity (%) Winds ( mph kmh ) Pressure ( in mb ) Visibility ( mi km ) Precip ( " mm )
12:15 am 00:15 Clear 23 -5.2 21 -5.9 95 95 NNW 3 6 30.36 1028 10 16.0934 0 0
12:35 am 00:35 Clear 23 -5 22 -5.5 96 96 N 6 9 30.3 1026 10 16.0934 0 0
12:55 am 00:55 Clear 21 -6.1 20 -6.7 96 96 Calm 30.33 1027 10 16.0934 0 0
1:15 am 01:15 Clear 20 -6.8 19 -7.1 98 98 WNW 5 7 30.36 1028 10 16.0934 0 0
1:35 am 01:35 Clear 20 -6.5 20 -6.9 97 97 NNW 6 9 30.33 1027 10 16.0934 0 0
1:55 am 01:55 Clear 21 -6.2 20 -6.6 97 97 NNW 3 6 30.33 1027 10 16.0934 0 0
2:15 am 02:15 Clear 19 -7.4 18 -7.7 98 98 Calm 30.33 1027 10 16.0934 0 0
2:35 am 02:35 Clear 19 -7 19 -7.2 98 98 N 6 9 30.33 1027 10 16.0934 0 0
2:55 am 02:55 Clear 18 -7.6 18 -7.9 98 98 N 5 7 30.33 1027 10 16.0934 0 0
3:15 am 03:15 Clear 19 -7.5 18 -7.8 98 98 N 3 6 30.33 1027 10 16.0934 0 0
3:35 am 03:35 Clear 20 -6.8 19 -7.1 98 98 N 3 6 30.33 1027 10 16.0934 0 0
3:55 am 03:55 Clear 19 -7.3 18 -7.7 97 97 N 3 6 30.33 1027 10 16.0934 0 0
4:15 am 04:15 Clear 19 -7 19 -7.2 98 98 NNW 3 6 30.33 1027 10 16.0934 0 0
4:35 am 04:35 Clear 18 -7.7 17 -8.1 97 97 N 5 7 30.33 1027 10 16.0934 0 0
4:55 am 04:55 Clear 19 -7.5 18 -8 96 96 N 3 6 30.33 1027 10 16.0934 0 0
5:15 am 05:15 Clear 18 -7.6 18 -8 97 97 N 3 6 30.33 1027 10 16.0934 0 0
5:35 am 05:35 Clear 17 -8.1 17 -8.5 97 97 NNE 6 9 30.36 1028 10 16.0934 0 0
5:55 am 05:55 Clear 18 -7.6 18 -8 97 97 NNE 7 11 30.33 1027 10 16.0934 0 0
6:15 am 06:15 Clear 19 -7 19 -7.3 98 98 NNE 7 11 30.3 1026 10 16.0934 0 0
6:35 am 06:35 Clear 19 -7.5 18 -7.7 98 98 NNE 3 6 30.3 1026 10 16.0934 0 0
6:55 am 06:55 Clear 19 -7.3 18 -7.6 98 98 Calm 30.3 1026 10 16.0934 0 0
7:15 am 07:15 Sunny 18 -7.7 17 -8.1 97 97 Calm 30.33 1027 10 16.0934 0 0
7:35 am 07:35 Sunny 20 -6.9 19 -7.2 98 98 Calm 30.33 1027 10 16.0934 0 0
7:55 am 07:55 Sunny 22 -5.6 21 -6 97 97 Calm 30.33 1027 10 16.0934 0 0
8:15 am 08:15 Sunny 23 -4.8 22 -5.3 96 96 Calm 30.3 1026 10 16.0934 0 0
8:35 am 08:35 Sunny 25 -4.1 23 -5 94 94 Calm 30.3 1026 10 16.0934 0 0
8:55 am 08:55 Sunny 26 -3.3 24 -4.5 92 92 Calm 30.3 1026 10 16.0934 0 0
9:15 am 09:15 Sunny 27 -2.8 24 -4.6 88 88 ESE 3 6 30.3 1026 10 16.0934 0 0
9:35 am 09:35 Sunny 28 -2.2 24 -4.4 85 85 Calm 30.3 1026 10 16.0934 0 0
9:55 am 09:55 Sunny 29 -1.6 24 -4.3 82 82 SE 6 9 30.24 1024 10 16.0934 0 0
10:15 am 10:15 Sunny 30 -1.2 24 -4.4 79 79 SE 3 6 30.24 1024 10 16.0934 0 0
10:35 am 10:35 Sunny 31 -0.4 25 -4 77 77 SE 6 9 30.24 1024 10 16.0934 0 0
10:55 am 10:55 Sunny 32 0 25 -3.9 75 75 ESE 6 9 30.24 1024 10 16.0934 0 0
11:15 am 11:15 Sunny 33 0.6 26 -3.3 75 75 ESE 6 9 30.24 1024 10 16.0934 0 0
11:35 am 11:35 Sunny 34 1.3 26 -3.2 72 72 ESE 7 11 30.21 1023 10 16.0934 0 0
11:55 am 11:55 Sunny 36 2.1 27 -2.6 71 71 E 9 15 30.21 1023 10 16.0934 0 0
12:15 pm 12:15 Sunny 37 3 27 -2.6 67 67 E 8 13 30.21 1023 10 16.0934 0 0
12:35 pm 12:35 Sunny 39 3.9 29 -1.7 67 67 ESE 6 9 30.15 1021 10 16.0934 0 0
12:55 pm 12:55 Sunny 41 4.9 28 -2 61 61 E 9 15 30.15 1021 10 16.0934 0 0
1:15 pm 13:15 Sunny 43 5.9 29 -1.6 59 59 E 12 19 30.12 1020 10 16.0934 0 0
1:35 pm 13:35 Sunny 43 6 29 -1.8 58 58 ESE 9 15 30.12 1020 10 16.0934 0 0
1:55 pm 13:55 Sunny 45 7.2 28 -2 52 52 ESE 10 17 30.09 1019 10 16.0934 0 0
2:15 pm 14:15 Sunny 46 7.7 28 -2.5 49 49 ESE 9 15 30.09 1019 10 16.0934 0 0
2:35 pm 14:35 Sunny 47 8.6 29 -1.9 48 48 E 9 15 30.06 1018 10 16.0934 0 0
2:55 pm 14:55 Sunny 48 8.9 28 -2.5 45 45 ESE 10 17 30.06 1018 10 16.0934 0 0
3:15 pm 15:15 Sunny 49 9.3 28 -2.3 44 44 ESE 10 17 30.06 1018 10 16.0934 0 0
3:35 pm 15:35 Sunny 49 9.6 25 -3.7 39 39 ESE 7 11 30.03 1017 10 16.0934 0 0
3:55 pm 15:55 Sunny 50 10 27 -2.8 41 41 ESE 10 17 30 1016 10 16.0934 0 0
4:15 pm 16:15 Sunny 51 10.6 28 -2.3 41 41 SE 12 19 30 1016 10 16.0934 0 0
4:35 pm 16:35 Sunny 52 10.9 28 -2.4 40 40 ESE 8 13 30 1016 10 16.0934 0 0
4:55 pm 16:55 Sunny 53 11.8 27 -2.8 36 36 SSE 10 17 30 1016 10 16.0934 0 0
5:15 pm 17:15 Sunny 53 11.8 27 -2.7 37 37 SE 13 20 30 1016 10 16.0934 0 0
5:35 pm 17:35 Sunny 53 11.6 27 -2.8 37 37 ESE 13 20 29.97 1015 10 16.0934 0 0
5:55 pm 17:55 Sunny 54 12.4 28 -2.3 36 36 SSE 9 15 29.94 1014 10 16.0934 0 0
6:15 pm 18:15 Sunny 55 12.5 27 -2.8 35 35 S 10 17 29.94 1014 10 16.0934 0 0
6:35 pm 18:35 Sunny 53 11.8 26 -3.1 35 35 SSE 10 17 29.97 1015 10 16.0934 0 0
6:55 pm 18:55 Sunny 53 11.5 27 -2.8 37 37 SSE 12 19 29.97 1015 10 16.0934 0 0
7:15 pm 19:15 Sunny 53 11.5 28 -2.5 38 38 SE 13 20 29.97 1015 10 16.0934 0 0
7:35 pm 19:35 Sunny 51 10.6 28 -2.4 40 40 SE 10 17 29.97 1015 10 16.0934 0 0
7:55 pm 19:55 Sunny 49 9.4 28 -2.3 44 44 SE 9 15 29.94 1014 10 16.0934 0 0
8:15 pm 20:15 Sunny 46 7.7 28 -2 51 51 SE 8 13 30 1016 10 16.0934 0 0
8:35 pm 20:35 Clear 41 4.8 28 -2.4 60 60 ESE 8 13 30 1016 10 16.0934 0 0
8:55 pm 20:55 Clear 42 5.4 29 -1.9 60 60 SE 9 15 29.97 1015 10 16.0934 0 0
9:15 pm 21:15 Clear 39 3.7 28 -2.1 66 66 ESE 8 13 30 1016 10 16.0934 0 0
9:35 pm 21:35 Clear 38 3.1 28 -2.2 69 69 SE 10 17 30 1016 10 16.0934 0 0
9:55 pm 21:55 Clear 37 2.8 28 -2 71 71 ESE 7 11 30 1016 10 16.0934 0 0
10:15 pm 22:15 Clear 36 2.3 29 -1.7 75 75 E 10 17 30 1016 10 16.0934 0 0
10:35 pm 22:35 Clear 36 2 29 -1.8 76 76 ESE 10 17 30.03 1017 10 16.0934 0 0
10:55 pm 22:55 Clear 37 2.8 31 -0.8 77 77 E 13 20 30 1016 10 16.0934 0 0
11:15 pm 23:15 Clear 37 2.8 31 -0.8 77 77 E 15 24 29.97 1015 10 16.0934 0 0
11:35 pm 23:35 Clear 37 2.7 30 -0.9 77 77 ESE 13 20 29.97 1015 10 16.0934 0 0
11:55 pm 23:55 Clear 36 2.1 30 -1.1 80 80 E 12 19 30.03 1017 10 16.0934 0 0

Powered by AerisWeather